Time,TemperatureF,DewpointF,PressureIn,WindDirection,WindDirectionDegrees,WindSpeedMPH,WindSpeedGustMPH,Humidity,HourlyPrecipIn,Conditions,Clouds,dailyrainin,SoftwareType,DateUTC
2013-03-11 00:00:00,39.4,36.4,30.28,SSE,158,5.8,5.8,89,0.00,CLR,,0.00,WeatherDisplay:10.37,2013-03-11 04:00:00,
2013-03-11 00:01:00,39.4,36.4,30.28,South,180,4.7,4.7,89,0.00,CLR,,0.00,WeatherDisplay:10.37,2013-03-11 04:01:00,
2013-03-11 00:06:00,39.4,36.4,30.28,East,90,3.5,3.5,89,0.00,CLR,,0.00,WeatherDisplay:10.37,2013-03-11 04:06:00,
2013-03-11 00:11:00,39.4,36.4,30.28,South,180,3.5,3.5,89,0.00,CLR,,0.00,WeatherDisplay:10.37,2013-03-11 04:11:00,
2013-03-11 00:17:00,39.4,36.4,30.28,SSE,158,4.6,4.6,89,0.00,CLR,,0.00,WeatherDisplay:10.37,2013-03-11 04:17:00,
2013-03-11 00:22:00,39.4,36.4,30.28,East,90,4.6,4.6,89,0.00,CLR,,0.00,WeatherDisplay:10.37,2013-03-11 04:22:00,
2013-03-11 00:27:00,39.4,36.4,30.28,South,180,4.6,4.6,89,0.00,CLR,,0.00,WeatherDisplay:10.37,2013-03-11 04:27:00,
2013-03-11 00:32:00,39.6,36.6,30.28,East,90,2.7,2.7,89,0.00,CLR,,0.00,WeatherDisplay:10.37,2013-03-11 04:32:00,
2013-03-11 00:37:00,39.6,36.6,30.27,South,180,4.6,4.6,89,0.00,CLR,,0.00,WeatherDisplay:10.37,2013-03-11 04:37:00,
2013-03-11 00:42:00,39.6,36.6,30.27,South,180,4.7,4.7,89,0.00,CLR,,0.00,WeatherDisplay:10.37,2013-03-11 04:42:00,
2013-03-11 00:47:00,39.6,36.6,30.27,South,180,4.6,4.6,89,0.00,CLR,,0.00,WeatherDisplay:10.37,2013-03-11 04:47:00,
2013-03-11 00:53:00,39.6,36.6,30.27,ESE,112,4.6,4.6,89,0.00,CLR,,0.00,WeatherDisplay:10.37,2013-03-11 04:53:00,
2013-03-11 00:58:00,39.6,36.6,30.27,ESE,112,3.7,3.7,89,0.00,CLR,,0.00,WeatherDisplay:10.37,2013-03-11 04:58:00,
2013-03-11 01:03:00,39.6,36.6,30.28,SSE,158,3.7,3.7,89,0.00,CLR,,0.00,WeatherDisplay:10.37,2013-03-11 05:03:00,
2013-03-11 01:08:00,39.7,37.0,30.28,South,180,2.7,2.7,90,0.00,CLR,,0.00,WeatherDisplay:10.37,2013-03-11 05:08:00,
2013-03-11 01:13:00,39.7,37.0,30.28,West,270,2.3,2.3,90,0.00,CLR,,0.00,WeatherDisplay:10.37,2013-03-11 05:13:00,
2013-03-11 01:18:00,39.7,37.0,30.28,SSW,202,4.6,4.6,90,0.00,CLR,,0.00,WeatherDisplay:10.37,2013-03-11 05:18:00,
2013-03-11 01:23:00,39.7,37.0,30.28,SW,225,2.3,2.3,90,0.00,CLR,,0.00,WeatherDisplay:10.37,2013-03-11 05:23:00,
2013-03-11 01:28:00,39.7,37.0,30.27,ENE,68,2.3,2.3,90,0.00,CLR,,0.00,WeatherDisplay:10.37,2013-03-11 05:28:00,
2013-03-11 01:33:00,39.7,37.0,30.27,South,180,4.6,4.6,90,0.00,CLR,,0.00,WeatherDisplay:10.37,2013-03-11 05:33:00,
2013-03-11 01:38:00,39.7,37.0,30.25,South,180,3.5,3.5,90,0.00,CLR,,0.00,WeatherDisplay:10.37,2013-03-11 05:38:00,
2013-03-11 01:44:00,39.7,37.3,30.25,SW,225,3.2,3.2,91,0.00,CLR,,0.00,WeatherDisplay:10.37,2013-03-11 05:44:00,
2013-03-11 01:49:00,39.7,37.3,30.26,SSE,158,2.3,3.0,91,0.00,CLR,,0.00,WeatherDisplay:10.37,2013-03-11 05:49:00,
2013-03-11 01:54:00,39.7,37.3,30.26,SW,225,2.7,2.7,91,0.00,CLR,,0.00,WeatherDisplay:10.37,2013-03-11 05:54:00,
2013-03-11 01:59:00,39.7,37.3,30.26,SSE,158,4.6,4.6,91,0.00,CLR,,0.00,WeatherDisplay:10.37,2013-03-11 05:59:00,
2013-03-11 02:04:00,39.7,37.3,30.26,South,180,3.5,3.5,91,0.00,CLR,,0.00,WeatherDisplay:10.37,2013-03-11 06:04:00,
2013-03-11 02:09:00,39.7,37.3,30.26,SSW,202,2.3,2.3,91,0.00,CLR,,0.00,WeatherDisplay:10.37,2013-03-11 06:09:00,
2013-03-11 02:14:00,39.7,37.3,30.26,WSW,248,2.3,2.3,91,0.00,CLR,,0.00,WeatherDisplay:10.37,2013-03-11 06:14:00,
2013-03-11 02:19:00,39.9,37.5,30.26,NE,45,3.5,3.5,91,0.00,CLR,,0.00,WeatherDisplay:10.37,2013-03-11 06:19:00,
2013-03-11 02:24:00,40.1,37.7,30.26,SSE,158,2.3,2.5,91,0.00,CLR,,0.00,WeatherDisplay:10.37,2013-03-11 06:24:00,
2013-03-11 02:29:00,40.1,37.7,30.25,SE,135,3.7,3.7,91,0.00,CLR,,0.00,WeatherDisplay:10.37,2013-03-11 06:29:00,
2013-03-11 02:35:00,40.1,37.7,30.25,SE,135,4.6,4.6,91,0.00,CLR,,0.00,WeatherDisplay:10.37,2013-03-11 06:35:00,
2013-03-11 02:40:00,40.1,37.7,30.25,SSE,158,2.3,2.3,91,0.00,CLR,,0.00,WeatherDisplay:10.37,2013-03-11 06:40:00,
2013-03-11 02:45:00,40.1,37.7,30.25,SSW,202,3.7,3.7,91,0.00,CLR,,0.00,WeatherDisplay:10.37,2013-03-11 06:45:00,
2013-03-11 02:50:00,40.1,37.7,30.25,SSW,202,2.7,2.7,91,0.00,CLR,,0.00,WeatherDisplay:10.37,2013-03-11 06:50:00,
2013-03-11 02:55:00,40.1,37.7,30.25,South,180,3.5,3.5,91,0.00,CLR,,0.00,WeatherDisplay:10.37,2013-03-11 06:55:00,
2013-03-11 03:00:00,40.3,37.9,30.25,South,180,2.7,2.7,91,0.00,CLR,,0.00,WeatherDisplay:10.37,2013-03-11 07:00:00,
2013-03-11 03:05:00,40.3,38.2,30.24,South,180,3.2,3.2,92,0.00,CLR,,0.00,WeatherDisplay:10.37,2013-03-11 07:05:00,
2013-03-11 03:10:00,40.3,38.2,30.24,South,180,2.3,2.4,92,0.00,CLR,,0.00,WeatherDisplay:10.37,2013-03-11 07:10:00,
2013-03-11 03:15:00,40.3,38.2,30.23,NNE,22,4.6,4.6,92,0.00,CLR,,0.00,WeatherDisplay:10.37,2013-03-11 07:15:00,
2013-03-11 03:20:00,40.3,38.2,30.39,ESE,112,2.3,2.3,92,0.00,CLR,,0.00,WeatherDisplay:10.37,2013-03-11 07:20:00,
2013-03-11 03:26:00,40.3,38.2,30.23,South,180,3.5,3.5,92,0.00,CLR,,0.00,WeatherDisplay:10.37,2013-03-11 07:26:00,
2013-03-11 03:31:00,40.3,38.2,30.23,South,180,2.3,0.0,92,0.00,CLR,,0.00,WeatherDisplay:10.37,2013-03-11 07:31:00,
2013-03-11 03:36:00,40.5,38.4,30.23,South,180,3.5,3.5,92,0.00,CLR,,0.00,WeatherDisplay:10.37,2013-03-11 07:36:00,
2013-03-11 03:41:00,40.5,38.4,30.24,ESE,112,2.3,2.3,92,0.00,CLR,,0.00,WeatherDisplay:10.37,2013-03-11 07:41:00,
2013-03-11 03:46:00,40.5,38.6,30.24,SSE,158,3.2,3.2,93,0.00,CLR,,0.00,WeatherDisplay:10.37,2013-03-11 07:46:00,
2013-03-11 03:51:00,40.5,38.6,30.24,ESE,112,3.5,3.5,93,0.00,CLR,,0.00,WeatherDisplay:10.37,2013-03-11 07:51:00,
2013-03-11 03:56:00,40.5,38.6,30.24,South,180,5.8,5.8,93,0.00,CLR,,0.00,WeatherDisplay:10.37,2013-03-11 07:56:00,
2013-03-11 04:02:00,40.5,38.6,30.24,ESE,112,3.5,3.5,93,0.00,CLR,,0.00,WeatherDisplay:10.37,2013-03-11 08:02:00,
2013-03-11 04:07:00,40.5,38.6,30.24,SE,135,1.7,1.7,93,0.00,CLR,,0.00,WeatherDisplay:10.37,2013-03-11 08:07:00,
2013-03-11 04:12:00,40.5,38.6,30.24,South,180,2.7,2.7,93,0.00,CLR,,0.00,WeatherDisplay:10.37,2013-03-11 08:12:00,
2013-03-11 04:17:00,40.5,38.9,30.23,South,180,2.7,2.7,94,0.00,CLR,,0.00,WeatherDisplay:10.37,2013-03-11 08:17:00,
2013-03-11 04:22:00,40.6,39.0,30.23,SE,135,2.7,2.7,94,0.00,CLR,,0.00,WeatherDisplay:10.37,2013-03-11 08:22:00,
2013-03-11 04:27:00,40.6,39.0,30.22,SE,135,1.1,1.1,94,0.00,CLR,,0.00,WeatherDisplay:10.37,2013-03-11 08:27:00,
2013-03-11 04:32:00,40.6,39.0,30.22,SSE,158,3.5,3.5,94,0.00,CLR,,0.00,WeatherDisplay:10.37,2013-03-11 08:32:00,
2013-03-11 04:38:00,40.6,39.0,30.22,NE,45,3.5,3.5,94,0.00,CLR,,0.00,WeatherDisplay:10.37,2013-03-11 08:38:00,
2013-03-11 04:43:00,40.6,39.0,30.22,South,180,0.0,0.0,94,0.00,CLR,,0.00,WeatherDisplay:10.37,2013-03-11 08:43:00,
2013-03-11 04:48:00,40.6,39.0,30.22,SSE,158,4.6,4.6,94,0.00,CLR,,0.00,WeatherDisplay:10.37,2013-03-11 08:48:00,
2013-03-11 04:53:00,40.6,39.0,30.23,South,180,3.5,3.5,94,0.00,CLR,,0.00,WeatherDisplay:10.37,2013-03-11 08:53:00,
2013-03-11 04:58:00,40.8,39.2,30.23,SSW,202,3.5,3.5,94,0.00,CLR,,0.00,WeatherDisplay:10.37,2013-03-11 08:58:00,
2013-03-11 05:03:00,40.8,39.2,30.22,NNE,22,4.6,4.6,94,0.00,CLR,,0.00,WeatherDisplay:10.37,2013-03-11 09:03:00,
2013-03-11 05:08:00,40.8,39.2,30.22,SSE,158,2.3,2.3,94,0.00,CLR,,0.00,WeatherDisplay:10.37,2013-03-11 09:08:00,
2013-03-11 05:13:00,40.8,39.2,30.22,SW,225,3.7,3.7,94,0.00,CLR,,0.00,WeatherDisplay:10.37,2013-03-11 09:13:00,
2013-03-11 05:18:00,41.0,39.4,30.22,SSE,158,3.5,3.5,94,0.00,CLR,,0.00,WeatherDisplay:10.37,2013-03-11 09:18:00,
2013-03-11 05:23:00,41.0,39.4,30.22,South,180,2.3,2.3,94,0.00,CLR,,0.00,WeatherDisplay:10.37,2013-03-11 09:23:00,
2013-03-11 05:29:00,41.0,39.4,30.22,SW,225,2.3,2.3,94,0.00,CLR,,0.00,WeatherDisplay:10.37,2013-03-11 09:29:00,
2013-03-11 05:34:00,41.0,39.4,30.22,NNE,22,2.3,2.3,94,0.00,CLR,,0.00,WeatherDisplay:10.37,2013-03-11 09:34:00,
2013-03-11 05:39:00,41.0,39.4,30.21,South,180,2.3,2.3,94,0.00,CLR,,0.00,WeatherDisplay:10.37,2013-03-11 09:39:00,
2013-03-11 05:44:00,41.2,39.6,30.21,SE,135,0.0,0.0,94,0.00,CLR,,0.00,WeatherDisplay:10.37,2013-03-11 09:44:00,
2013-03-11 05:49:00,41.2,39.6,30.21,SSE,158,1.1,0.0,94,0.00,CLR,,0.00,WeatherDisplay:10.37,2013-03-11 09:49:00,
2013-03-11 05:54:00,41.2,39.6,30.21,SSW,202,2.3,2.3,94,0.00,CLR,,0.00,WeatherDisplay:10.37,2013-03-11 09:54:00,
2013-03-11 05:59:00,41.4,39.8,30.21,South,180,2.3,2.3,94,0.00,CLR,,0.00,WeatherDisplay:10.37,2013-03-11 09:59:00,
2013-03-11 06:04:00,41.4,39.8,30.21,ESE,112,2.3,2.3,94,0.00,CLR,,0.00,WeatherDisplay:10.37,2013-03-11 10:04:00,
2013-03-11 06:09:00,41.4,39.8,30.21,SE,135,2.7,2.7,94,0.00,CLR,,0.00,WeatherDisplay:10.37,2013-03-11 10:09:00,
2013-03-11 06:14:00,41.5,39.9,30.21,SSW,202,2.3,2.3,94,0.00,CLR,,0.00,WeatherDisplay:10.37,2013-03-11 10:14:00,
2013-03-11 06:20:00,41.5,39.9,30.21,SSE,158,2.3,2.3,94,0.00,CLR,,0.00,WeatherDisplay:10.37,2013-03-11 10:20:00,
2013-03-11 06:25:00,41.5,39.9,30.21,SW,225,3.5,3.5,94,0.00,CLR,,0.00,WeatherDisplay:10.37,2013-03-11 10:25:00,
2013-03-11 06:30:00,41.5,39.9,30.21,SSE,158,2.3,2.3,94,0.00,CLR,,0.00,WeatherDisplay:10.37,2013-03-11 10:30:00,
2013-03-11 06:35:00,41.5,39.9,30.21,South,180,1.1,0.0,94,0.00,CLR,,0.00,WeatherDisplay:10.37,2013-03-11 10:35:00,
2013-03-11 06:40:00,41.7,40.1,30.21,SW,225,2.3,2.3,94,0.00,CLR,,0.00,WeatherDisplay:10.37,2013-03-11 10:40:00,
2013-03-11 06:45:00,41.7,40.1,30.21,NW,315,0.0,0.0,94,0.00,CLR,,0.00,WeatherDisplay:10.37,2013-03-11 10:45:00,
2013-03-11 06:50:00,41.7,40.1,30.21,East,90,2.3,2.3,94,0.00,CLR,,0.00,WeatherDisplay:10.37,2013-03-11 10:50:00,
2013-03-11 06:55:00,41.7,40.1,30.21,SSW,202,2.2,2.2,94,0.00,CLR,,0.00,WeatherDisplay:10.37,2013-03-11 10:55:00,
2013-03-11 07:00:00,41.7,40.1,30.21,East,90,2.7,2.7,94,0.00,CLR,,0.00,WeatherDisplay:10.37,2013-03-11 11:00:00,
2013-03-11 07:05:00,41.7,40.1,30.21,NNE,22,2.3,2.3,94,0.00,CLR,,0.00,WeatherDisplay:10.37,2013-03-11 11:05:00,
2013-03-11 07:11:00,41.7,40.1,30.21,South,180,4.6,4.6,94,0.00,CLR,,0.00,WeatherDisplay:10.37,2013-03-11 11:11:00,
2013-03-11 07:16:00,41.7,40.1,30.20,North,360,5.8,5.8,94,0.00,CLR,,0.00,WeatherDisplay:10.37,2013-03-11 11:16:00,
2013-03-11 07:22:00,41.7,40.1,30.20,NE,45,4.6,4.6,94,0.00,CLR,,0.00,WeatherDisplay:10.37,2013-03-11 11:22:00,
2013-03-11 07:27:00,41.7,40.1,30.20,ENE,68,3.5,3.5,94,0.00,CLR,,0.00,WeatherDisplay:10.37,2013-03-11 11:27:00,
2013-03-11 07:32:00,41.7,40.1,30.20,NE,45,2.3,2.3,94,0.00,CLR,,0.00,WeatherDisplay:10.37,2013-03-11 11:32:00,
2013-03-11 07:37:00,41.7,40.1,30.20,West,270,2.7,2.7,94,0.00,CLR,,0.00,WeatherDisplay:10.37,2013-03-11 11:37:00,
2013-03-11 07:42:00,41.7,40.1,30.20,North,360,5.8,5.8,94,0.00,CLR,,0.00,WeatherDisplay:10.37,2013-03-11 11:42:00,
2013-03-11 07:47:00,41.7,40.1,30.20,NW,315,3.5,3.5,94,0.00,CLR,,0.00,WeatherDisplay:10.37,2013-03-11 11:47:00,
2013-03-11 07:53:00,41.9,40.3,30.19,South,180,2.7,2.7,94,0.00,CLR,,0.00,WeatherDisplay:10.37,2013-03-11 11:53:00,
2013-03-11 07:58:00,41.9,40.3,30.19,NE,45,3.5,3.5,94,0.00,CLR,,0.00,WeatherDisplay:10.37,2013-03-11 11:58:00,
2013-03-11 08:03:00,41.9,40.3,30.19,NE,45,3.5,3.5,94,0.00,CLR,,0.00,WeatherDisplay:10.37,2013-03-11 12:03:00,
2013-03-11 08:08:00,41.7,40.1,30.19,SSW,202,5.8,5.8,94,0.00,CLR,,0.00,WeatherDisplay:10.37,2013-03-11 12:08:00,
2013-03-11 08:13:00,41.9,40.3,30.19,SSE,158,2.2,2.2,94,0.00,CLR,,0.00,WeatherDisplay:10.37,2013-03-11 12:13:00,
2013-03-11 08:18:00,42.3,40.4,30.19,SSE,158,4.6,4.6,93,0.00,CLR,,0.00,WeatherDisplay:10.37,2013-03-11 12:18:00,
2013-03-11 08:23:00,42.3,40.4,30.19,SSW,202,3.5,3.5,93,0.00,CLR,,0.00,WeatherDisplay:10.37,2013-03-11 12:23:00,
2013-03-11 08:28:00,42.4,40.5,30.20,WNW,292,2.3,2.3,93,0.00,CLR,,0.00,WeatherDisplay:10.37,2013-03-11 12:28:00,
2013-03-11 08:33:00,42.4,40.5,30.20,ESE,112,4.6,4.6,93,0.00,CLR,,0.00,WeatherDisplay:10.37,2013-03-11 12:33:00,
2013-03-11 08:38:00,42.8,40.6,30.20,South,180,5.8,5.8,92,0.00,CLR,,0.00,WeatherDisplay:10.37,2013-03-11 12:38:00,
2013-03-11 08:44:00,42.8,40.6,30.20,SW,225,4.6,4.6,92,0.00,CLR,,0.00,WeatherDisplay:10.37,2013-03-11 12:44:00,
2013-03-11 08:49:00,42.8,40.6,30.20,ENE,68,5.8,5.8,92,0.00,CLR,,0.00,WeatherDisplay:10.37,2013-03-11 12:49:00,
2013-03-11 08:54:00,43.2,41.0,30.21,ESE,112,3.5,3.5,92,0.00,CLR,,0.00,WeatherDisplay:10.37,2013-03-11 12:54:00,
2013-03-11 08:59:00,43.5,41.0,30.21,SSE,158,3.7,3.7,91,0.00,CLR,,0.00,WeatherDisplay:10.37,2013-03-11 12:59:00,
2013-03-11 09:04:00,43.5,41.0,30.21,South,180,4.6,4.6,91,0.00,CLR,,0.00,WeatherDisplay:10.37,2013-03-11 13:04:00,
2013-03-11 09:09:00,43.5,41.0,30.21,SE,135,4.6,4.6,91,0.00,CLR,,0.00,WeatherDisplay:10.37,2013-03-11 13:09:00,
2013-03-11 09:14:00,43.7,41.2,30.21,South,180,4.6,4.6,91,0.00,CLR,,0.00,WeatherDisplay:10.37,2013-03-11 13:14:00,
2013-03-11 09:19:00,43.9,41.2,30.21,SSW,202,3.5,3.5,90,0.00,CLR,,0.00,WeatherDisplay:10.37,2013-03-11 13:19:00,
2013-03-11 09:24:00,44.2,41.5,30.21,ESE,112,3.5,3.5,90,0.00,CLR,,0.00,WeatherDisplay:10.37,2013-03-11 13:24:00,
2013-03-11 09:29:00,44.6,41.6,30.21,ESE,112,4.6,4.6,89,0.00,CLR,,0.00,WeatherDisplay:10.37,2013-03-11 13:29:00,
2013-03-11 09:35:00,44.6,41.6,30.21,NE,45,2.3,2.3,89,0.00,CLR,,0.00,WeatherDisplay:10.37,2013-03-11 13:35:00,
2013-03-11 09:40:00,44.8,41.8,30.21,SW,225,3.5,3.5,89,0.00,CLR,,0.00,WeatherDisplay:10.37,2013-03-11 13:40:00,
2013-03-11 09:45:00,44.8,41.8,30.21,SW,225,2.3,2.3,89,0.00,CLR,,0.00,WeatherDisplay:10.37,2013-03-11 13:45:00,
2013-03-11 09:50:00,45.1,41.8,30.21,SE,135,3.5,3.5,88,0.00,CLR,,0.00,WeatherDisplay:10.37,2013-03-11 13:50:00,
2013-03-11 09:55:00,45.5,42.2,30.21,SSW,202,4.6,4.6,88,0.00,CLR,,0.00,WeatherDisplay:10.37,2013-03-11 13:55:00,
2013-03-11 10:00:00,45.9,42.5,30.21,SSE,158,4.6,4.6,88,0.00,CLR,,0.00,WeatherDisplay:10.37,2013-03-11 14:00:00,
2013-03-11 10:05:00,46.2,42.5,30.22,South,180,4.6,4.6,87,0.00,CLR,,0.00,WeatherDisplay:10.37,2013-03-11 14:05:00,
2013-03-11 10:10:00,46.4,42.7,30.22,SE,135,4.6,4.6,87,0.00,CLR,,0.00,WeatherDisplay:10.37,2013-03-11 14:10:00,
2013-03-11 10:15:00,46.0,42.3,30.21,WSW,248,5.8,5.8,87,0.00,CLR,,0.00,WeatherDisplay:10.37,2013-03-11 14:15:00,
2013-03-11 10:20:00,46.2,42.5,30.21,South,180,3.5,3.5,87,0.00,CLR,,0.00,WeatherDisplay:10.37,2013-03-11 14:20:00,
2013-03-11 10:26:00,46.4,42.7,30.22,South,180,5.8,5.8,87,0.00,CLR,,0.00,WeatherDisplay:10.37,2013-03-11 14:26:00,
2013-03-11 10:31:00,46.8,42.8,30.22,SSE,158,4.6,4.6,86,0.00,CLR,,0.00,WeatherDisplay:10.37,2013-03-11 14:31:00,
2013-03-11 10:36:00,46.4,42.7,30.22,SE,135,5.8,5.8,87,0.00,CLR,,0.00,WeatherDisplay:10.37,2013-03-11 14:36:00,
2013-03-11 10:42:00,46.4,42.7,30.22,SSE,158,6.9,6.9,87,0.00,CLR,,0.00,WeatherDisplay:10.37,2013-03-11 14:42:00,
2013-03-11 10:47:00,46.8,43.1,30.22,ESE,112,5.8,5.8,87,0.00,CLR,,0.00,WeatherDisplay:10.37,2013-03-11 14:47:00,
2013-03-11 10:52:00,47.1,43.1,30.22,SSW,202,5.8,5.8,86,0.00,CLR,,0.00,WeatherDisplay:10.37,2013-03-11 14:52:00,
2013-03-11 10:57:00,46.9,42.9,30.22,SSE,158,4.7,4.7,86,0.00,CLR,,0.00,WeatherDisplay:10.37,2013-03-11 14:57:00,
2013-03-11 11:02:00,46.9,42.9,30.21,SE,135,3.7,3.7,86,0.00,CLR,,0.00,WeatherDisplay:10.37,2013-03-11 15:02:00,
2013-03-11 11:08:00,47.7,43.7,30.21,South,180,4.7,4.7,86,0.00,CLR,,0.00,WeatherDisplay:10.37,2013-03-11 15:08:00,
2013-03-11 11:13:00,47.3,43.3,30.21,SE,135,8.8,8.8,86,0.00,CLR,,0.00,WeatherDisplay:10.37,2013-03-11 15:13:00,
2013-03-11 11:18:00,48.0,44.0,30.21,SSE,158,7.3,7.3,86,0.00,CLR,,0.00,WeatherDisplay:10.37,2013-03-11 15:18:00,
2013-03-11 11:23:00,48.6,44.0,30.21,SSW,202,5.8,5.8,84,0.00,CLR,,0.00,WeatherDisplay:10.37,2013-03-11 15:23:00,
2013-03-11 11:28:00,49.1,44.5,30.20,South,180,6.3,6.3,84,0.00,CLR,,0.00,WeatherDisplay:10.37,2013-03-11 15:28:00,
2013-03-11 11:33:00,48.9,44.0,30.20,ESE,112,5.8,5.8,83,0.00,CLR,,0.00,WeatherDisplay:10.37,2013-03-11 15:33:00,
2013-03-11 11:39:00,50.2,44.9,30.19,ESE,112,5.8,5.8,82,0.00,CLR,,0.00,WeatherDisplay:10.37,2013-03-11 15:39:00,
2013-03-11 11:44:00,50.0,44.7,30.19,SSE,158,5.3,5.3,82,0.00,CLR,,0.00,WeatherDisplay:10.37,2013-03-11 15:44:00,
2013-03-11 11:49:00,50.5,44.9,30.19,SSE,158,5.8,5.8,81,0.00,CLR,,0.00,WeatherDisplay:10.37,2013-03-11 15:49:00,
2013-03-11 11:54:00,50.7,44.8,30.18,SSW,202,6.9,6.9,80,0.00,CLR,,0.00,WeatherDisplay:10.37,2013-03-11 15:54:00,
2013-03-11 11:59:00,50.0,44.4,30.18,SSW,202,6.9,7.0,81,0.00,CLR,,0.00,WeatherDisplay:10.37,2013-03-11 15:59:00,
2013-03-11 12:04:00,49.5,44.2,30.19,South,180,8.3,8.3,82,0.00,CLR,,0.00,WeatherDisplay:10.37,2013-03-11 16:04:00,
2013-03-11 12:09:00,49.6,44.6,30.19,South,180,8.1,8.1,83,0.00,CLR,,0.00,WeatherDisplay:10.37,2013-03-11 16:09:00,
2013-03-11 12:14:00,50.0,44.7,30.19,NE,45,4.6,4.6,82,0.00,CLR,,0.00,WeatherDisplay:10.37,2013-03-11 16:14:00,
2013-03-11 12:19:00,50.4,44.8,30.19,South,180,5.8,5.8,81,0.00,CLR,,0.00,WeatherDisplay:10.37,2013-03-11 16:19:00,
2013-03-11 12:24:00,50.7,44.8,30.19,SSE,158,4.6,4.6,80,0.00,CLR,,0.00,WeatherDisplay:10.37,2013-03-11 16:24:00,
2013-03-11 12:30:00,50.2,44.6,30.19,SSW,202,5.8,6.3,81,0.00,CLR,,0.00,WeatherDisplay:10.37,2013-03-11 16:30:00,
2013-03-11 12:35:00,51.3,45.0,30.19,SW,225,5.8,5.8,79,0.00,CLR,,0.00,WeatherDisplay:10.37,2013-03-11 16:35:00,
2013-03-11 12:40:00,51.6,45.3,30.19,South,180,6.9,6.9,79,0.00,CLR,,0.00,WeatherDisplay:10.37,2013-03-11 16:40:00,
2013-03-11 12:45:00,52.0,45.0,30.19,SSW,202,6.9,6.9,77,0.00,CLR,,0.00,WeatherDisplay:10.37,2013-03-11 16:45:00,
2013-03-11 12:50:00,51.1,44.5,30.19,South,180,9.2,9.2,78,0.00,CLR,,0.00,WeatherDisplay:10.37,2013-03-11 16:50:00,
2013-03-11 12:55:00,51.4,44.8,30.19,South,180,8.1,8.1,78,0.00,CLR,,0.00,WeatherDisplay:10.37,2013-03-11 16:55:00,
2013-03-11 13:00:00,51.1,44.8,30.19,SSW,202,8.1,8.1,79,0.00,CLR,,0.00,WeatherDisplay:10.37,2013-03-11 17:00:00,
2013-03-11 13:05:00,51.6,45.0,30.18,SSW,202,5.8,5.8,78,0.00,CLR,,0.00,WeatherDisplay:10.37,2013-03-11 17:05:00,
2013-03-11 13:10:00,51.1,45.1,30.18,SSW,202,8.1,8.1,80,0.00,CLR,,0.00,WeatherDisplay:10.37,2013-03-11 17:10:00,
2013-03-11 13:15:00,52.0,45.7,30.17,SSE,158,5.8,5.8,79,0.00,CLR,,0.00,WeatherDisplay:10.37,2013-03-11 17:15:00,
2013-03-11 13:21:00,51.6,45.0,30.17,SSW,202,10.4,10.4,78,0.00,CLR,,0.00,WeatherDisplay:10.37,2013-03-11 17:21:00,
2013-03-11 13:26:00,51.8,45.2,30.17,SSE,158,6.9,6.9,78,0.00,CLR,,0.00,WeatherDisplay:10.37,2013-03-11 17:26:00,
2013-03-11 13:31:00,52.2,45.2,30.17,NE,45,8.3,8.3,77,0.00,CLR,,0.00,WeatherDisplay:10.37,2013-03-11 17:31:00,
2013-03-11 13:37:00,52.0,45.0,30.17,South,180,6.9,6.9,77,0.00,CLR,,0.00,WeatherDisplay:10.37,2013-03-11 17:37:00,
2013-03-11 13:42:00,52.7,45.3,30.16,SE,135,6.9,6.9,76,0.00,CLR,,0.00,WeatherDisplay:10.37,2013-03-11 17:42:00,
2013-03-11 13:48:00,52.7,45.3,30.16,ESE,112,4.6,4.6,76,0.00,CLR,,0.00,WeatherDisplay:10.37,2013-03-11 17:48:00,
2013-03-11 13:53:00,52.3,45.0,30.16,SSE,158,9.2,9.2,76,0.00,CLR,,0.00,WeatherDisplay:10.37,2013-03-11 17:53:00,
2013-03-11 13:58:00,52.7,45.3,30.16,West,270,6.9,6.9,76,0.00,CLR,,0.00,WeatherDisplay:10.37,2013-03-11 17:58:00,
2013-03-11 14:03:00,53.1,45.4,30.15,SSW,202,5.8,5.8,75,0.00,CLR,,0.00,WeatherDisplay:10.37,2013-03-11 18:03:00,
2013-03-11 14:08:00,52.9,45.2,30.15,South,180,5.8,5.8,75,0.00,CLR,,0.00,WeatherDisplay:10.37,2013-03-11 18:08:00,
2013-03-11 14:13:00,52.9,45.2,30.15,SSE,158,6.9,6.9,75,0.00,CLR,,0.00,WeatherDisplay:10.37,2013-03-11 18:13:00,
2013-03-11 14:18:00,52.9,45.9,30.15,SSE,158,6.9,6.9,77,0.00,CLR,,0.00,WeatherDisplay:10.37,2013-03-11 18:18:00,
2013-03-11 14:23:00,53.1,46.1,30.15,West,270,6.9,6.9,77,0.00,CLR,,0.00,WeatherDisplay:10.37,2013-03-11 18:23:00,
2013-03-11 14:28:00,52.9,46.2,30.15,South,180,9.4,9.4,78,0.00,CLR,,0.00,WeatherDisplay:10.37,2013-03-11 18:28:00,
2013-03-11 14:33:00,53.6,46.6,30.15,SSW,202,9.2,9.2,77,0.00,CLR,,0.00,WeatherDisplay:10.37,2013-03-11 18:33:00,
2013-03-11 14:39:00,52.7,46.4,30.14,SSW,202,6.9,6.9,79,0.00,CLR,,0.00,WeatherDisplay:10.37,2013-03-11 18:39:00,
2013-03-11 14:44:00,53.6,46.6,30.14,SSE,158,5.8,5.8,77,0.00,CLR,,0.00,WeatherDisplay:10.37,2013-03-11 18:44:00,
2013-03-11 14:49:00,52.7,46.0,30.14,South,180,6.9,6.9,78,0.00,CLR,,0.00,WeatherDisplay:10.37,2013-03-11 18:49:00,
2013-03-11 14:54:00,52.5,46.2,30.14,ENE,68,8.1,8.1,79,0.00,CLR,,0.00,WeatherDisplay:10.37,2013-03-11 18:54:00,
2013-03-11 14:59:00,53.1,46.4,30.14,SW,225,9.2,9.2,78,0.00,CLR,,0.00,WeatherDisplay:10.37,2013-03-11 18:59:00,
2013-03-11 15:04:00,53.4,46.7,30.13,West,270,5.8,5.8,78,0.00,CLR,,0.00,WeatherDisplay:10.37,2013-03-11 19:04:00,
2013-03-11 15:09:00,52.7,46.4,30.13,SSW,202,9.2,9.2,79,0.00,CLR,,0.00,WeatherDisplay:10.37,2013-03-11 19:09:00,
2013-03-11 15:14:00,53.2,46.5,30.13,South,180,6.3,6.3,78,0.00,CLR,,0.00,WeatherDisplay:10.37,2013-03-11 19:14:00,
2013-03-11 15:19:00,52.9,46.6,30.13,SSE,158,5.8,5.8,79,0.00,CLR,,0.00,WeatherDisplay:10.37,2013-03-11 19:19:00,
2013-03-11 15:24:00,53.2,46.5,30.13,South,180,9.2,9.2,78,0.00,CLR,,0.00,WeatherDisplay:10.37,2013-03-11 19:24:00,
2013-03-11 15:30:00,52.7,46.7,30.12,SSE,158,8.1,8.1,80,0.00,CLR,,0.00,WeatherDisplay:10.37,2013-03-11 19:30:00,
2013-03-11 15:35:00,52.5,46.5,30.12,NW,315,6.9,6.9,80,0.00,CLR,,0.00,WeatherDisplay:10.37,2013-03-11 19:35:00,
2013-03-11 15:40:00,52.5,46.5,30.12,South,180,6.9,6.9,80,0.00,CLR,,0.00,WeatherDisplay:10.37,2013-03-11 19:40:00,
2013-03-11 15:45:00,52.7,46.7,30.12,South,180,5.8,5.8,80,0.00,CLR,,0.00,WeatherDisplay:10.37,2013-03-11 19:45:00,
2013-03-11 15:50:00,52.2,46.2,30.12,SSE,158,10.4,10.4,80,0.00,CLR,,0.00,WeatherDisplay:10.37,2013-03-11 19:50:00,
2013-03-11 15:55:00,52.5,46.5,30.12,North,360,8.1,8.1,80,0.00,CLR,,0.00,WeatherDisplay:10.37,2013-03-11 19:55:00,
2013-03-11 16:00:00,52.5,46.5,30.12,NNE,22,4.6,4.6,80,0.00,CLR,,0.00,WeatherDisplay:10.37,2013-03-11 20:00:00,
2013-03-11 16:05:00,52.5,46.5,30.12,SSE,158,6.9,6.9,80,0.00,CLR,,0.00,WeatherDisplay:10.37,2013-03-11 20:05:00,
2013-03-11 16:10:00,52.5,46.5,30.12,SE,135,6.8,6.8,80,0.00,CLR,,0.00,WeatherDisplay:10.37,2013-03-11 20:10:00,
2013-03-11 16:15:00,52.5,46.5,30.12,South,180,5.8,5.8,80,0.00,CLR,,0.00,WeatherDisplay:10.37,2013-03-11 20:15:00,
2013-03-11 16:21:00,52.5,46.5,30.12,NNE,22,5.8,5.8,80,0.00,CLR,,0.00,WeatherDisplay:10.37,2013-03-11 20:21:00,
2013-03-11 16:26:00,52.2,46.5,30.11,South,180,8.1,8.1,81,0.00,CLR,,0.00,WeatherDisplay:10.37,2013-03-11 20:26:00,
2013-03-11 16:31:00,51.6,46.3,30.11,South,180,5.8,5.8,82,0.00,CLR,,0.00,WeatherDisplay:10.37,2013-03-11 20:31:00,
2013-03-11 16:36:00,51.6,46.3,30.11,NE,45,6.3,6.3,82,0.00,CLR,,0.00,WeatherDisplay:10.37,2013-03-11 20:36:00,
2013-03-11 16:41:00,51.4,46.1,30.11,SSE,158,6.9,6.9,82,0.00,CLR,,0.00,WeatherDisplay:10.37,2013-03-11 20:41:00,
2013-03-11 16:47:00,51.3,46.0,30.11,SSE,158,6.9,6.9,82,0.00,CLR,,0.00,WeatherDisplay:10.37,2013-03-11 20:47:00,
2013-03-11 16:52:00,51.3,46.0,30.10,NNE,22,6.9,7.2,82,0.00,CLR,,0.00,WeatherDisplay:10.37,2013-03-11 20:52:00,
2013-03-11 16:57:00,51.6,46.6,30.10,SSE,158,3.5,3.5,83,0.00,CLR,,0.00,WeatherDisplay:10.37,2013-03-11 20:57:00,
2013-03-11 17:02:00,50.9,45.9,30.10,SSE,158,8.1,8.1,83,0.00,CLR,,0.00,WeatherDisplay:10.37,2013-03-11 21:02:00,
2013-03-11 17:07:00,50.9,46.2,30.10,SE,135,5.8,5.8,84,0.00,CLR,,0.00,WeatherDisplay:10.37,2013-03-11 21:07:00,
2013-03-11 17:12:00,50.9,46.2,30.10,South,180,5.8,5.8,84,0.00,CLR,,0.00,WeatherDisplay:10.37,2013-03-11 21:12:00,
2013-03-11 17:17:00,50.4,45.7,30.09,NNW,338,6.9,6.9,84,0.00,CLR,,0.00,WeatherDisplay:10.37,2013-03-11 21:17:00,
2013-03-11 17:22:00,50.4,45.7,30.09,South,180,6.3,6.3,84,0.00,CLR,,0.00,WeatherDisplay:10.37,2013-03-11 21:22:00,
2013-03-11 17:27:00,50.4,45.7,30.09,NW,315,8.1,8.1,84,0.00,CLR,,0.00,WeatherDisplay:10.37,2013-03-11 21:27:00,
2013-03-11 17:33:00,50.4,45.7,30.09,ESE,112,5.8,5.8,84,0.00,CLR,,0.00,WeatherDisplay:10.37,2013-03-11 21:33:00,
2013-03-11 17:38:00,50.4,45.7,30.09,WSW,248,6.9,6.9,84,0.00,CLR,,0.00,WeatherDisplay:10.37,2013-03-11 21:38:00,
2013-03-11 17:43:00,50.5,45.8,30.09,WSW,248,4.2,4.2,84,0.00,CLR,,0.00,WeatherDisplay:10.37,2013-03-11 21:43:00,
2013-03-11 17:48:00,50.4,45.7,30.09,East,90,4.6,4.6,84,0.00,CLR,,0.00,WeatherDisplay:10.37,2013-03-11 21:48:00,
2013-03-11 17:53:00,49.8,45.8,30.09,ESE,112,5.8,5.8,86,0.00,CLR,,0.00,WeatherDisplay:10.37,2013-03-11 21:53:00,
2013-03-11 17:58:00,49.8,45.8,30.09,WSW,248,6.9,6.9,86,0.00,CLR,,0.00,WeatherDisplay:10.37,2013-03-11 21:58:00,
2013-03-11 18:03:00,49.6,45.6,30.08,WSW,248,7.3,7.3,86,0.00,CLR,,0.00,WeatherDisplay:10.37,2013-03-11 22:03:00,
2013-03-11 18:09:00,49.6,45.6,30.08,SSE,158,7.3,7.3,86,0.00,CLR,,0.00,WeatherDisplay:10.37,2013-03-11 22:09:00,
2013-03-11 18:14:00,49.6,45.9,30.08,SSW,202,6.9,6.9,87,0.00,CLR,,0.00,WeatherDisplay:10.37,2013-03-11 22:14:00,
2013-03-11 18:19:00,49.6,45.9,30.09,South,180,7.8,7.8,87,0.00,CLR,,0.00,WeatherDisplay:10.37,2013-03-11 22:19:00,
2013-03-11 18:24:00,49.8,46.1,30.09,SSE,158,4.7,4.7,87,0.00,CLR,,0.00,WeatherDisplay:10.37,2013-03-11 22:24:00,
2013-03-11 18:29:00,49.8,46.1,30.09,SSE,158,4.6,4.6,87,0.00,CLR,,0.00,WeatherDisplay:10.37,2013-03-11 22:29:00,
2013-03-11 18:34:00,49.6,46.2,30.09,ENE,68,7.3,7.3,88,0.00,CLR,,0.00,WeatherDisplay:10.37,2013-03-11 22:34:00,
2013-03-11 18:39:00,49.5,46.1,30.08,South,180,9.2,9.2,88,0.00,CLR,,0.00,WeatherDisplay:10.37,2013-03-11 22:39:00,
2013-03-11 18:44:00,49.3,46.2,30.08,WSW,248,5.8,5.8,89,0.00,CLR,,0.00,WeatherDisplay:10.37,2013-03-11 22:44:00,
2013-03-11 18:49:00,49.3,46.2,30.08,East,90,3.5,3.5,89,0.00,CLR,,0.00,WeatherDisplay:10.37,2013-03-11 22:49:00,
2013-03-11 18:54:00,49.1,46.3,30.08,SW,225,4.6,4.6,90,0.00,CLR,,0.00,WeatherDisplay:10.37,2013-03-11 22:54:00,
2013-03-11 18:59:00,48.9,46.1,30.08,WSW,248,5.8,5.8,90,0.00,CLR,,0.00,WeatherDisplay:10.37,2013-03-11 22:59:00,
2013-03-11 19:05:00,48.9,46.1,30.08,South,180,5.8,5.8,90,0.00,CLR,,0.00,WeatherDisplay:10.37,2013-03-11 23:05:00,
2013-03-11 19:10:00,48.9,46.4,30.08,NNE,22,5.8,5.8,91,0.00,CLR,,0.00,WeatherDisplay:10.37,2013-03-11 23:10:00,
2013-03-11 19:15:00,48.9,46.4,30.08,ENE,68,2.7,2.7,91,0.00,CLR,,0.00,WeatherDisplay:10.37,2013-03-11 23:15:00,
2013-03-11 19:20:00,48.7,46.2,30.08,NNE,22,4.6,4.6,91,0.00,CLR,,0.00,WeatherDisplay:10.37,2013-03-11 23:20:00,
2013-03-11 19:25:00,48.7,46.2,30.08,SSE,158,6.9,6.9,91,0.00,CLR,,0.00,WeatherDisplay:10.37,2013-03-11 23:25:00,
2013-03-11 19:30:00,48.7,46.2,30.08,WSW,248,9.2,9.2,91,0.00,CLR,,0.00,WeatherDisplay:10.37,2013-03-11 23:30:00,
2013-03-11 19:35:00,48.7,46.5,30.08,ESE,112,4.6,4.6,92,0.00,CLR,,0.00,WeatherDisplay:10.37,2013-03-11 23:35:00,
2013-03-11 19:40:00,48.7,46.5,30.08,SSE,158,8.8,8.8,92,0.00,CLR,,0.00,WeatherDisplay:10.37,2013-03-11 23:40:00,
2013-03-11 19:45:00,48.6,46.4,30.08,SSE,158,8.1,8.1,92,0.00,CLR,,0.00,WeatherDisplay:10.37,2013-03-11 23:45:00,
2013-03-11 19:50:00,48.4,46.5,30.08,West,270,8.1,8.1,93,0.00,CLR,,0.00,WeatherDisplay:10.37,2013-03-11 23:50:00,
2013-03-11 19:56:00,48.4,46.5,30.08,NNE,22,6.9,6.9,93,0.00,CLR,,0.00,WeatherDisplay:10.37,2013-03-11 23:56:00,
2013-03-11 20:01:00,48.4,46.5,30.08,South,180,5.3,5.3,93,0.00,CLR,,0.00,WeatherDisplay:10.37,2013-03-12 00:01:00,
2013-03-11 20:06:00,48.4,46.8,30.08,SSW,202,8.1,8.1,94,0.00,CLR,,0.00,WeatherDisplay:10.37,2013-03-12 00:06:00,
2013-03-11 20:11:00,48.4,46.8,30.08,SSW,202,4.6,4.6,94,0.00,CLR,,0.00,WeatherDisplay:10.37,2013-03-12 00:11:00,
2013-03-11 20:16:00,48.4,46.8,30.08,SSE,158,6.3,6.3,94,0.00,CLR,,0.00,WeatherDisplay:10.37,2013-03-12 00:16:00,
2013-03-11 20:22:00,48.4,46.8,30.08,SW,225,8.1,8.1,94,0.00,CLR,,0.00,WeatherDisplay:10.37,2013-03-12 00:22:00,
2013-03-11 20:27:00,48.4,46.8,30.09,South,180,5.8,5.8,94,0.00,CLR,,0.00,WeatherDisplay:10.37,2013-03-12 00:27:00,
2013-03-11 20:33:00,48.4,46.8,30.09,SSW,202,5.8,5.8,94,0.00,CLR,,0.00,WeatherDisplay:10.37,2013-03-12 00:33:00,
2013-03-11 20:38:00,48.2,46.6,30.09,SSE,158,6.9,6.9,94,0.00,CLR,,0.00,WeatherDisplay:10.37,2013-03-12 00:38:00,
2013-03-11 20:43:00,48.2,46.6,30.09,SSE,158,6.3,6.3,94,0.00,CLR,,0.00,WeatherDisplay:10.37,2013-03-12 00:43:00,
2013-03-11 20:48:00,48.2,46.6,30.09,SE,135,6.9,6.9,94,0.00,CLR,,0.00,WeatherDisplay:10.37,2013-03-12 00:48:00,
2013-03-11 20:53:00,48.0,46.6,30.09,South,180,5.8,5.8,95,0.00,CLR,,0.00,WeatherDisplay:10.37,2013-03-12 00:53:00,
2013-03-11 20:58:00,48.0,46.6,30.09,South,180,4.7,4.7,95,0.00,CLR,,0.00,WeatherDisplay:10.37,2013-03-12 00:58:00,
2013-03-11 21:03:00,47.8,46.4,30.09,South,180,6.3,6.3,95,0.00,CLR,,0.00,WeatherDisplay:10.37,2013-03-12 01:03:00,
2013-03-11 21:08:00,47.8,46.7,30.09,SE,135,8.1,8.1,96,0.00,CLR,,0.00,WeatherDisplay:10.37,2013-03-12 01:08:00,
2013-03-11 21:14:00,47.7,46.6,30.08,South,180,5.8,5.8,96,0.00,CLR,,0.00,WeatherDisplay:10.37,2013-03-12 01:14:00,
2013-03-11 21:19:00,47.7,46.6,30.08,South,180,5.8,5.8,96,0.00,CLR,,0.00,WeatherDisplay:10.37,2013-03-12 01:19:00,
2013-03-11 21:24:00,47.7,46.6,30.08,SSE,158,6.3,6.3,96,0.00,CLR,,0.00,WeatherDisplay:10.37,2013-03-12 01:24:00,
2013-03-11 21:29:00,47.5,46.4,30.08,SSE,158,6.9,6.9,96,0.00,CLR,,0.00,WeatherDisplay:10.37,2013-03-12 01:29:00,
2013-03-11 21:34:00,47.3,46.5,30.08,SE,135,5.8,5.8,97,0.00,CLR,,0.00,WeatherDisplay:10.37,2013-03-12 01:34:00,
2013-03-11 21:39:00,46.9,46.1,30.08,South,180,5.8,5.8,97,0.00,CLR,,0.00,WeatherDisplay:10.37,2013-03-12 01:39:00,
2013-03-11 21:44:00,46.8,46.0,30.08,SSE,158,5.8,5.8,97,0.00,CLR,,0.00,WeatherDisplay:10.37,2013-03-12 01:44:00,
2013-03-11 21:49:00,46.8,46.3,30.07,SSE,158,5.8,5.8,98,0.00,CLR,,0.00,WeatherDisplay:10.37,2013-03-12 01:49:00,
2013-03-11 21:54:00,46.6,46.1,30.07,SE,135,6.9,6.9,98,0.00,CLR,,0.00,WeatherDisplay:10.37,2013-03-12 01:54:00,
2013-03-11 22:00:00,46.6,46.1,30.07,SSW,202,5.8,5.8,98,0.00,CLR,,0.00,WeatherDisplay:10.37,2013-03-12 02:00:00,
2013-03-11 22:05:00,46.8,46.3,30.08,South,180,5.8,5.8,98,0.00,CLR,,0.00,WeatherDisplay:10.37,2013-03-12 02:05:00,
2013-03-11 22:10:00,46.9,46.4,30.08,South,180,10.4,10.4,98,0.00,CLR,,0.00,WeatherDisplay:10.37,2013-03-12 02:10:00,
2013-03-11 22:15:00,46.9,46.4,30.08,South,180,5.8,5.8,98,0.00,CLR,,0.00,WeatherDisplay:10.37,2013-03-12 02:15:00,
2013-03-11 22:20:00,47.1,46.6,30.08,South,180,6.9,6.9,98,0.00,CLR,,0.00,WeatherDisplay:10.37,2013-03-12 02:20:00,
2013-03-11 22:25:00,47.3,46.8,30.07,South,180,5.3,5.3,98,0.00,CLR,,0.00,WeatherDisplay:10.37,2013-03-12 02:25:00,
2013-03-11 22:30:00,47.3,46.8,30.07,SSE,158,5.8,5.8,98,0.00,CLR,,0.00,WeatherDisplay:10.37,2013-03-12 02:30:00,
2013-03-11 22:35:00,47.1,46.6,30.07,SSW,202,5.8,5.8,98,0.00,CLR,,0.00,WeatherDisplay:10.37,2013-03-12 02:35:00,
2013-03-11 22:40:00,47.1,46.6,30.07,SSE,158,6.9,6.9,98,0.00,CLR,,0.00,WeatherDisplay:10.37,2013-03-12 02:40:00,
2013-03-11 22:45:00,46.9,46.6,30.07,South,180,5.8,5.8,99,0.00,CLR,,0.00,WeatherDisplay:10.37,2013-03-12 02:45:00,
2013-03-11 22:51:00,46.9,46.6,30.07,South,180,5.8,5.8,99,0.00,CLR,,0.00,WeatherDisplay:10.37,2013-03-12 02:51:00,
2013-03-11 22:56:00,46.6,46.3,30.07,ESE,112,6.9,6.9,99,0.00,CLR,,0.00,WeatherDisplay:10.37,2013-03-12 02:56:00,
2013-03-11 23:01:00,46.4,46.1,30.07,SW,225,6.9,6.9,99,0.00,CLR,,0.00,WeatherDisplay:10.37,2013-03-12 03:01:00,
2013-03-11 23:06:00,46.0,45.7,30.06,South,180,5.8,5.8,99,0.00,CLR,,0.00,WeatherDisplay:10.37,2013-03-12 03:06:00,
2013-03-11 23:11:00,45.9,45.6,30.06,SSE,158,6.9,6.9,99,0.00,CLR,,0.00,WeatherDisplay:10.37,2013-03-12 03:11:00,
2013-03-11 23:16:00,45.7,45.4,30.06,SW,225,6.9,6.9,99,0.00,CLR,,0.00,WeatherDisplay:10.37,2013-03-12 03:16:00,
2013-03-11 23:21:00,45.7,45.4,30.06,South,180,4.6,4.6,99,0.00,CLR,,0.00,WeatherDisplay:10.37,2013-03-12 03:21:00,
2013-03-11 23:27:00,45.7,45.4,30.06,South,180,4.6,4.6,99,0.00,CLR,,0.00,WeatherDisplay:10.37,2013-03-12 03:27:00,
2013-03-11 23:32:00,45.7,45.4,30.06,ESE,112,4.6,4.6,99,0.00,CLR,,0.00,WeatherDisplay:10.37,2013-03-12 03:32:00,
2013-03-11 23:37:00,45.7,45.4,30.06,SSW,202,3.5,3.5,99,0.00,CLR,,0.00,WeatherDisplay:10.37,2013-03-12 03:37:00,
2013-03-11 23:42:00,45.7,45.4,30.06,SSE,158,3.5,3.5,99,0.00,CLR,,0.00,WeatherDisplay:10.37,2013-03-12 03:42:00,
2013-03-11 23:47:00,45.7,45.4,30.06,ESE,112,4.7,4.7,99,0.00,CLR,,0.00,WeatherDisplay:10.37,2013-03-12 03:47:00,
2013-03-11 23:52:00,45.9,45.6,30.07,SSE,158,3.5,3.5,99,0.00,CLR,,0.00,WeatherDisplay:10.37,2013-03-12 03:52:00,
2013-03-11 23:57:00,45.9,45.6,30.07,SSE,158,2.7,2.7,99,0.00,CLR,,0.00,WeatherDisplay:10.37,2013-03-12 03:57:00,